Tracking 29892 objects as of 21-Nov-2024
HD Live streaming from Space Station
objects crossing your sky now

STARLINK-11234

Track STARLINK-11234 now!
10-day predictions
STARLINK-11234 is classified as:


NORAD ID: 60400
Int'l Code: 2024-141C
Perigee: 366.0 km
Apogee: 367.8 km
Inclination: 53.2 °
Period: 91.7 minutes
Semi major axis: 6737 km
RCS: Unknown
Launch date: August 10, 2024
Source: United States (US)
Launch site: AIR FORCE EASTERN TEST RANGE (AFETR)
Your satellite tracking list
Your tracking list is empty




NASA's NSSDC Master Catalog

Two Line Element Set (TLE):
1 60400U 24141C   24325.08493074 -.00005156  00000-0 -37732-4 0  9998
2 60400  53.1587 265.6864 0001323  73.2131 286.9032 15.69703370 17159
Source of the keplerian elements: AFSPC